Location: *
(34.6903°N, 135.5184°E)
Time: 13:32:37
(UTC+00:00)

Cosmos 1340 - Pass Details

Date: 22 September 2019
Orbit: 502 x 506 km, 81.2° (Epoch: 17 October)

Event Time Altitude Azimuth Distance (km) Brightness Sun altitude
Rises 18:31:45 0° 0° (N) 2,612 6.5 -27.8°
Reaches altitude 10° 18:33:59 10° 8° (N) 1,722 5.7 -27.4°
Maximum altitude 18:37:33 39° 79° (ENE) 767 4.0 -26.7°
Enters shadow 18:38:03 37° 100° (E) 796 4.0 -26.6°
